utcTime,localTime,pm25,nowcast
2018-11-08 23:00:00 +0000,2018-11-08 15:00:00 -0800,14,NA
2018-11-09 00:00:00 +0000,2018-11-08 16:00:00 -0800,8,10.1
2018-11-09 01:00:00 +0000,2018-11-08 17:00:00 -0800,9,9.5
2018-11-09 02:00:00 +0000,2018-11-08 18:00:00 -0800,-0,4.4
2018-11-09 03:00:00 +0000,2018-11-08 19:00:00 -0800,18,11.4
2018-11-09 04:00:00 +0000,2018-11-08 20:00:00 -0800,10,10.6
2018-11-09 05:00:00 +0000,2018-11-08 21:00:00 -0800,0,5.3
2018-11-09 06:00:00 +0000,2018-11-08 22:00:00 -0800,22,13.6
2018-11-09 07:00:00 +0000,2018-11-08 23:00:00 -0800,15,14.3
2018-11-09 08:00:00 +0000,2018-11-09 00:00:00 -0800,6,10.1
2018-11-09 09:00:00 +0000,2018-11-09 01:00:00 -0800,7,8.5
2018-11-09 10:00:00 +0000,2018-11-09 02:00:00 -0800,24,16.2
2018-11-09 11:00:00 +0000,2018-11-09 03:00:00 -0800,1,8.6
2018-11-09 12:00:00 +0000,2018-11-09 04:00:00 -0800,16,12.3
2018-11-09 13:00:00 +0000,2018-11-09 05:00:00 -0800,17,14.6
2018-11-09 14:00:00 +0000,2018-11-09 06:00:00 -0800,16,15.3
2018-11-09 15:00:00 +0000,2018-11-09 07:00:00 -0800,16,15.6
2018-11-09 16:00:00 +0000,2018-11-09 08:00:00 -0800,16,15.8
2018-11-09 17:00:00 +0000,2018-11-09 09:00:00 -0800,0,7.9
2018-11-09 18:00:00 +0000,2018-11-09 10:00:00 -0800,6,6.9
2018-11-09 19:00:00 +0000,2018-11-09 11:00:00 -0800,18,12.4
2018-11-09 20:00:00 +0000,2018-11-09 12:00:00 -0800,20,16.2
2018-11-09 21:00:00 +0000,2018-11-09 13:00:00 -0800,6,11.1
2018-11-09 22:00:00 +0000,2018-11-09 14:00:00 -0800,5,8
2018-11-09 23:00:00 +0000,2018-11-09 15:00:00 -0800,14,11
2018-11-10 00:00:00 +0000,2018-11-09 16:00:00 -0800,16,13.5
2018-11-10 01:00:00 +0000,2018-11-09 17:00:00 -0800,18,15.7
2018-11-10 02:00:00 +0000,2018-11-09 18:00:00 -0800,22,18.8
2018-11-10 03:00:00 +0000,2018-11-09 19:00:00 -0800,11,14.9
2018-11-10 04:00:00 +0000,2018-11-09 20:00:00 -0800,16,15.4
2018-11-10 05:00:00 +0000,2018-11-09 21:00:00 -0800,19,17.2
2018-11-10 06:00:00 +0000,2018-11-09 22:00:00 -0800,11,14.1
2018-11-10 07:00:00 +0000,2018-11-09 23:00:00 -0800,39,26.5
2018-11-10 08:00:00 +0000,2018-11-10 00:00:00 -0800,23,24.7
2018-11-10 09:00:00 +0000,2018-11-10 01:00:00 -0800,4,14.3
2018-11-10 10:00:00 +0000,2018-11-10 02:00:00 -0800,12,13.1
2018-11-10 11:00:00 +0000,2018-11-10 03:00:00 -0800,6,9.5
2018-11-10 12:00:00 +0000,2018-11-10 04:00:00 -0800,37,23.3
2018-11-10 13:00:00 +0000,2018-11-10 05:00:00 -0800,13,18.1
2018-11-10 14:00:00 +0000,2018-11-10 06:00:00 -0800,32,25
2018-11-10 15:00:00 +0000,2018-11-10 07:00:00 -0800,13,19
2018-11-10 16:00:00 +0000,2018-11-10 08:00:00 -0800,11,15
2018-11-10 17:00:00 +0000,2018-11-10 09:00:00 -0800,28,21.5
2018-11-10 18:00:00 +0000,2018-11-10 10:00:00 -0800,0,10.7
2018-11-10 19:00:00 +0000,2018-11-10 11:00:00 -0800,0,5.3
2018-11-10 20:00:00 +0000,2018-11-10 12:00:00 -0800,2,3.6
2018-11-10 21:00:00 +0000,2018-11-10 13:00:00 -0800,2,2.8
2018-11-10 22:00:00 +0000,2018-11-10 14:00:00 -0800,10,6.4
2018-11-10 23:00:00 +0000,2018-11-10 15:00:00 -0800,13,9.7
2018-11-11 00:00:00 +0000,2018-11-10 16:00:00 -0800,13,11.3
2018-11-11 01:00:00 +0000,2018-11-10 17:00:00 -0800,0,5.6
2018-11-11 02:00:00 +0000,2018-11-10 18:00:00 -0800,15,10.3
2018-11-11 03:00:00 +0000,2018-11-10 19:00:00 -0800,12,11.1
2018-11-11 04:00:00 +0000,2018-11-10 20:00:00 -0800,22,16.5
2018-11-11 05:00:00 +0000,2018-11-10 21:00:00 -0800,20,18.2
2018-11-11 06:00:00 +0000,2018-11-10 22:00:00 -0800,22,20.1
2018-11-11 07:00:00 +0000,2018-11-10 23:00:00 -0800,5,12.5
2018-11-11 08:00:00 +0000,2018-11-11 00:00:00 -0800,NA,NA
2018-11-11 09:00:00 +0000,2018-11-11 01:00:00 -0800,12,12.1
2018-11-11 10:00:00 +0000,2018-11-11 02:00:00 -0800,16,14.3
2018-11-11 11:00:00 +0000,2018-11-11 03:00:00 -0800,18,16.3
2018-11-11 12:00:00 +0000,2018-11-11 04:00:00 -0800,11,13.5
2018-11-11 13:00:00 +0000,2018-11-11 05:00:00 -0800,6,9.7
2018-11-11 14:00:00 +0000,2018-11-11 06:00:00 -0800,2,5.8
2018-11-11 15:00:00 +0000,2018-11-11 07:00:00 -0800,20,12.9
2018-11-11 16:00:00 +0000,2018-11-11 08:00:00 -0800,15,13.9
2018-11-11 17:00:00 +0000,2018-11-11 09:00:00 -0800,0,6.9
2018-11-11 18:00:00 +0000,2018-11-11 10:00:00 -0800,0,3.4
2018-11-11 19:00:00 +0000,2018-11-11 11:00:00 -0800,7,5.2
2018-11-11 20:00:00 +0000,2018-11-11 12:00:00 -0800,9,7.1
2018-11-11 21:00:00 +0000,2018-11-11 13:00:00 -0800,-0,3.5
2018-11-11 22:00:00 +0000,2018-11-11 14:00:00 -0800,6,4.7
2018-11-11 23:00:00 +0000,2018-11-11 15:00:00 -0800,15,9.8
2018-11-12 00:00:00 +0000,2018-11-11 16:00:00 -0800,10,9.9
2018-11-12 01:00:00 +0000,2018-11-11 17:00:00 -0800,0,4.9
2018-11-12 02:00:00 +0000,2018-11-11 18:00:00 -0800,17,10.9
2018-11-12 03:00:00 +0000,2018-11-11 19:00:00 -0800,5,7.9
2018-11-12 04:00:00 +0000,2018-11-11 20:00:00 -0800,31,19.4
2018-11-12 05:00:00 +0000,2018-11-11 21:00:00 -0800,10,14.7
2018-11-12 06:00:00 +0000,2018-11-11 22:00:00 -0800,17,15.8
2018-11-12 07:00:00 +0000,2018-11-11 23:00:00 -0800,6,10.9
2018-11-12 08:00:00 +0000,2018-11-12 00:00:00 -0800,15,12.9
2018-11-12 09:00:00 +0000,2018-11-12 01:00:00 -0800,7,9.9
2018-11-12 10:00:00 +0000,2018-11-12 02:00:00 -0800,9,9.4
2018-11-12 11:00:00 +0000,2018-11-12 03:00:00 -0800,7,8.2
2018-11-12 12:00:00 +0000,2018-11-12 04:00:00 -0800,7,7.6
2018-11-12 13:00:00 +0000,2018-11-12 05:00:00 -0800,14,10.8
2018-11-12 14:00:00 +0000,2018-11-12 06:00:00 -0800,8,9.4
2018-11-12 15:00:00 +0000,2018-11-12 07:00:00 -0800,7,8.2
2018-11-12 16:00:00 +0000,2018-11-12 08:00:00 -0800,11,9.5
2018-11-12 17:00:00 +0000,2018-11-12 09:00:00 -0800,7,8.2
2018-11-12 18:00:00 +0000,2018-11-12 10:00:00 -0800,8,8.1
2018-11-12 19:00:00 +0000,2018-11-12 11:00:00 -0800,9,8.5
2018-11-12 20:00:00 +0000,2018-11-12 12:00:00 -0800,2,5.2
2018-11-12 21:00:00 +0000,2018-11-12 13:00:00 -0800,2,3.6
2018-11-12 22:00:00 +0000,2018-11-12 14:00:00 -0800,10,6.8
2018-11-12 23:00:00 +0000,2018-11-12 15:00:00 -0800,0,3.4
2018-11-13 00:00:00 +0000,2018-11-12 16:00:00 -0800,10,6.7
2018-11-13 01:00:00 +0000,2018-11-12 17:00:00 -0800,2,4.3
2018-11-13 02:00:00 +0000,2018-11-12 18:00:00 -0800,7,5.6
2018-11-13 03:00:00 +0000,2018-11-12 19:00:00 -0800,9,7.3
2018-11-13 04:00:00 +0000,2018-11-12 20:00:00 -0800,18,12.6
2018-11-13 05:00:00 +0000,2018-11-12 21:00:00 -0800,9,10.8
2018-11-13 06:00:00 +0000,2018-11-12 22:00:00 -0800,21,15.9
2018-11-13 07:00:00 +0000,2018-11-12 23:00:00 -0800,17,16.4
2018-11-13 08:00:00 +0000,2018-11-13 00:00:00 -0800,12,14.2
2018-11-13 09:00:00 +0000,2018-11-13 01:00:00 -0800,6,10.1
2018-11-13 10:00:00 +0000,2018-11-13 02:00:00 -0800,14,12
2018-11-13 11:00:00 +0000,2018-11-13 03:00:00 -0800,11,11.5
2018-11-13 12:00:00 +0000,2018-11-13 04:00:00 -0800,19,15.2
2018-11-13 13:00:00 +0000,2018-11-13 05:00:00 -0800,-0,7.6
2018-11-13 14:00:00 +0000,2018-11-13 06:00:00 -0800,21,14.3
2018-11-13 15:00:00 +0000,2018-11-13 07:00:00 -0800,16,15.1
2018-11-13 16:00:00 +0000,2018-11-13 08:00:00 -0800,0,7.5
2018-11-13 17:00:00 +0000,2018-11-13 09:00:00 -0800,9,8.2
2018-11-13 18:00:00 +0000,2018-11-13 10:00:00 -0800,9,8.6
2018-11-13 19:00:00 +0000,2018-11-13 11:00:00 -0800,16,12.3
2018-11-13 20:00:00 +0000,2018-11-13 12:00:00 -0800,13,12.6
2018-11-13 21:00:00 +0000,2018-11-13 13:00:00 -0800,4,8.3
2018-11-13 22:00:00 +0000,2018-11-13 14:00:00 -0800,17,12.6
2018-11-13 23:00:00 +0000,2018-11-13 15:00:00 -0800,6,9.3
2018-11-14 00:00:00 +0000,2018-11-13 16:00:00 -0800,9,9.1
2018-11-14 01:00:00 +0000,2018-11-13 17:00:00 -0800,12,10.5
2018-11-14 02:00:00 +0000,2018-11-13 18:00:00 -0800,10,10.2
2018-11-14 03:00:00 +0000,2018-11-13 19:00:00 -0800,16,13.1
2018-11-14 04:00:00 +0000,2018-11-13 20:00:00 -0800,12,12.5
2018-11-14 05:00:00 +0000,2018-11-13 21:00:00 -0800,11,11.7
2018-11-14 06:00:00 +0000,2018-11-13 22:00:00 -0800,18,14.8
2018-11-14 07:00:00 +0000,2018-11-13 23:00:00 -0800,14,14.4
2018-11-14 08:00:00 +0000,2018-11-14 00:00:00 -0800,31,22.7
2018-11-14 09:00:00 +0000,2018-11-14 01:00:00 -0800,17,19.8
2018-11-14 10:00:00 +0000,2018-11-14 02:00:00 -0800,17,18.4
2018-11-14 11:00:00 +0000,2018-11-14 03:00:00 -0800,26,22.2
2018-11-14 12:00:00 +0000,2018-11-14 04:00:00 -0800,19,20.6
2018-11-14 13:00:00 +0000,2018-11-14 05:00:00 -0800,27,23.8
2018-11-14 14:00:00 +0000,2018-11-14 06:00:00 -0800,21,22.4
2018-11-14 15:00:00 +0000,2018-11-14 07:00:00 -0800,9,15.7
2018-11-14 16:00:00 +0000,2018-11-14 08:00:00 -0800,NA,NA
2018-11-14 17:00:00 +0000,2018-11-14 09:00:00 -0800,NA,NA
2018-11-14 18:00:00 +0000,2018-11-14 10:00:00 -0800,36,NA
2018-11-14 19:00:00 +0000,2018-11-14 11:00:00 -0800,18,23.3
2018-11-14 20:00:00 +0000,2018-11-14 12:00:00 -0800,36,30.3
2018-11-14 21:00:00 +0000,2018-11-14 13:00:00 -0800,6,17.5
2018-11-14 22:00:00 +0000,2018-11-14 14:00:00 -0800,32,24.9
2018-11-14 23:00:00 +0000,2018-11-14 15:00:00 -0800,19,21.9
2018-11-15 00:00:00 +0000,2018-11-14 16:00:00 -0800,18,19.9
2018-11-15 01:00:00 +0000,2018-11-14 17:00:00 -0800,15,17.4
2018-11-15 02:00:00 +0000,2018-11-14 18:00:00 -0800,14,15.7
2018-11-15 03:00:00 +0000,2018-11-14 19:00:00 -0800,31,23.3
2018-11-15 04:00:00 +0000,2018-11-14 20:00:00 -0800,20,21.6
2018-11-15 05:00:00 +0000,2018-11-14 21:00:00 -0800,26,23.8
2018-11-15 06:00:00 +0000,2018-11-14 22:00:00 -0800,13,18.4
2018-11-15 07:00:00 +0000,2018-11-14 23:00:00 -0800,13,15.7
2018-11-15 08:00:00 +0000,2018-11-15 00:00:00 -0800,13,14.3
2018-11-15 09:00:00 +0000,2018-11-15 01:00:00 -0800,36,25.1
2018-11-15 10:00:00 +0000,2018-11-15 02:00:00 -0800,0,12.5
2018-11-15 11:00:00 +0000,2018-11-15 03:00:00 -0800,9,10.7
2018-11-15 12:00:00 +0000,2018-11-15 04:00:00 -0800,NA,NA
2018-11-15 13:00:00 +0000,2018-11-15 05:00:00 -0800,38,28.9
2018-11-15 14:00:00 +0000,2018-11-15 06:00:00 -0800,26,27.2
2018-11-15 15:00:00 +0000,2018-11-15 07:00:00 -0800,9,17.5
2018-11-15 16:00:00 +0000,2018-11-15 08:00:00 -0800,32,24.9
2018-11-15 17:00:00 +0000,2018-11-15 09:00:00 -0800,0,12.2
2018-11-15 18:00:00 +0000,2018-11-15 10:00:00 -0800,4,8.1
2018-11-15 19:00:00 +0000,2018-11-15 11:00:00 -0800,12,10
2018-11-15 20:00:00 +0000,2018-11-15 12:00:00 -0800,10,10
2018-11-15 21:00:00 +0000,2018-11-15 13:00:00 -0800,3,6.5
2018-11-15 22:00:00 +0000,2018-11-15 14:00:00 -0800,8,7.2
2018-11-15 23:00:00 +0000,2018-11-15 15:00:00 -0800,10,8.6
2018-11-16 00:00:00 +0000,2018-11-15 16:00:00 -0800,-0,4.3
2018-11-16 01:00:00 +0000,2018-11-15 17:00:00 -0800,13,8.6
2018-11-16 02:00:00 +0000,2018-11-15 18:00:00 -0800,13,10.8
2018-11-16 03:00:00 +0000,2018-11-15 19:00:00 -0800,11,10.9
2018-11-16 04:00:00 +0000,2018-11-15 20:00:00 -0800,6,8.4
2018-11-16 05:00:00 +0000,2018-11-15 21:00:00 -0800,8,8.2
2018-11-16 06:00:00 +0000,2018-11-15 22:00:00 -0800,19,13.6
2018-11-16 07:00:00 +0000,2018-11-15 23:00:00 -0800,2,7.8
2018-11-16 08:00:00 +0000,2018-11-16 00:00:00 -0800,10,8.9
2018-11-16 09:00:00 +0000,2018-11-16 01:00:00 -0800,0,4.4
2018-11-16 10:00:00 +0000,2018-11-16 02:00:00 -0800,NA,NA
2018-11-16 11:00:00 +0000,2018-11-16 03:00:00 -0800,NA,NA
2018-11-16 12:00:00 +0000,2018-11-16 04:00:00 -0800,7,NA
2018-11-16 13:00:00 +0000,2018-11-16 05:00:00 -0800,-0,2.4
2018-11-16 14:00:00 +0000,2018-11-16 06:00:00 -0800,NA,NA
2018-11-16 15:00:00 +0000,2018-11-16 07:00:00 -0800,33,24.1
2018-11-16 16:00:00 +0000,2018-11-16 08:00:00 -0800,0,9.9
2018-11-16 17:00:00 +0000,2018-11-16 09:00:00 -0800,14,12.1
2018-11-16 18:00:00 +0000,2018-11-16 10:00:00 -0800,24,18.3
2018-11-16 19:00:00 +0000,2018-11-16 11:00:00 -0800,7,12.5
2018-11-16 20:00:00 +0000,2018-11-16 12:00:00 -0800,15,13.7
2018-11-16 21:00:00 +0000,2018-11-16 13:00:00 -0800,0,6.8
2018-11-16 22:00:00 +0000,2018-11-16 14:00:00 -0800,0,3.4
2018-11-16 23:00:00 +0000,2018-11-16 15:00:00 -0800,0,1.7
2018-11-17 00:00:00 +0000,2018-11-16 16:00:00 -0800,8,4.8
2018-11-17 01:00:00 +0000,2018-11-16 17:00:00 -0800,13,8.9
2018-11-17 02:00:00 +0000,2018-11-16 18:00:00 -0800,6,7.4
2018-11-17 03:00:00 +0000,2018-11-16 19:00:00 -0800,13,10.2
2018-11-17 04:00:00 +0000,2018-11-16 20:00:00 -0800,0,5.1
2018-11-17 05:00:00 +0000,2018-11-16 21:00:00 -0800,8,6.5
2018-11-17 06:00:00 +0000,2018-11-16 22:00:00 -0800,12,9.2
2018-11-17 07:00:00 +0000,2018-11-16 23:00:00 -0800,-0,4.6
2018-11-17 08:00:00 +0000,2018-11-17 00:00:00 -0800,10,7.3
2018-11-17 09:00:00 +0000,2018-11-17 01:00:00 -0800,14,10.6
2018-11-17 10:00:00 +0000,2018-11-17 02:00:00 -0800,0,5.3
2018-11-17 11:00:00 +0000,2018-11-17 03:00:00 -0800,16,10.6
2018-11-17 12:00:00 +0000,2018-11-17 04:00:00 -0800,0,5.3
2018-11-17 13:00:00 +0000,2018-11-17 05:00:00 -0800,0,2.6
2018-11-17 14:00:00 +0000,2018-11-17 06:00:00 -0800,9,5.8
2018-11-17 15:00:00 +0000,2018-11-17 07:00:00 -0800,4,4.9
2018-11-17 16:00:00 +0000,2018-11-17 08:00:00 -0800,30,17.4
2018-11-17 17:00:00 +0000,2018-11-17 09:00:00 -0800,0,8.7
2018-11-17 18:00:00 +0000,2018-11-17 10:00:00 -0800,-0,4.3
2018-11-17 19:00:00 +0000,2018-11-17 11:00:00 -0800,3,3.6
2018-11-17 20:00:00 +0000,2018-11-17 12:00:00 -0800,3,3.3
2018-11-17 21:00:00 +0000,2018-11-17 13:00:00 -0800,0,1.6
2018-11-17 22:00:00 +0000,2018-11-17 14:00:00 -0800,4,2.8
2018-11-17 23:00:00 +0000,2018-11-17 15:00:00 -0800,9,5.9
2018-11-18 00:00:00 +0000,2018-11-17 16:00:00 -0800,12,8.9
2018-11-18 01:00:00 +0000,2018-11-17 17:00:00 -0800,6,7.4
2018-11-18 02:00:00 +0000,2018-11-17 18:00:00 -0800,12,9.7
2018-11-18 03:00:00 +0000,2018-11-17 19:00:00 -0800,17,13.3
2018-11-18 04:00:00 +0000,2018-11-17 20:00:00 -0800,18,15.6
2018-11-18 05:00:00 +0000,2018-11-17 21:00:00 -0800,16,15.8
2018-11-18 06:00:00 +0000,2018-11-17 22:00:00 -0800,10,12.9
2018-11-18 07:00:00 +0000,2018-11-17 23:00:00 -0800,18,15.4
2018-11-18 08:00:00 +0000,2018-11-18 00:00:00 -0800,18,16.7
2018-11-18 09:00:00 +0000,2018-11-18 01:00:00 -0800,12,14.3
2018-11-18 10:00:00 +0000,2018-11-18 02:00:00 -0800,16,15.1
2018-11-18 11:00:00 +0000,2018-11-18 03:00:00 -0800,6,10.5
2018-11-18 12:00:00 +0000,2018-11-18 04:00:00 -0800,11,10.7
2018-11-18 13:00:00 +0000,2018-11-18 05:00:00 -0800,9,9.8
2018-11-18 14:00:00 +0000,2018-11-18 06:00:00 -0800,8,8.9
2018-11-18 15:00:00 +0000,2018-11-18 07:00:00 -0800,1,4.9
2018-11-18 16:00:00 +0000,2018-11-18 08:00:00 -0800,0,2.4
2018-11-18 17:00:00 +0000,2018-11-18 09:00:00 -0800,0,1.2
2018-11-18 18:00:00 +0000,2018-11-18 10:00:00 -0800,7,4.1
2018-11-18 19:00:00 +0000,2018-11-18 11:00:00 -0800,9,6.5
2018-11-18 20:00:00 +0000,2018-11-18 12:00:00 -0800,2,4.2
2018-11-18 21:00:00 +0000,2018-11-18 13:00:00 -0800,1,2.6
2018-11-18 22:00:00 +0000,2018-11-18 14:00:00 -0800,16,9.3
2018-11-18 23:00:00 +0000,2018-11-18 15:00:00 -0800,11,10.1
2018-11-19 00:00:00 +0000,2018-11-18 16:00:00 -0800,3,6.5
2018-11-19 01:00:00 +0000,2018-11-18 17:00:00 -0800,12,9.2
2018-11-19 02:00:00 +0000,2018-11-18 18:00:00 -0800,14,11.6
2018-11-19 03:00:00 +0000,2018-11-18 19:00:00 -0800,14,12.8
2018-11-19 04:00:00 +0000,2018-11-18 20:00:00 -0800,18,15.4
2018-11-19 05:00:00 +0000,2018-11-18 21:00:00 -0800,19,17.2
2018-11-19 06:00:00 +0000,2018-11-18 22:00:00 -0800,22,19.6
2018-11-19 07:00:00 +0000,2018-11-18 23:00:00 -0800,12,15.8
2018-11-19 08:00:00 +0000,2018-11-19 00:00:00 -0800,17,16.4
2018-11-19 09:00:00 +0000,2018-11-19 01:00:00 -0800,9,12.7
2018-11-19 10:00:00 +0000,2018-11-19 02:00:00 -0800,20,16.3
